﻿測定場所 (Monitoring sites),日付 (Measurement date),時間 (Measurement time),線量率 最大値 (max) μGy/h,線量率 最小値 (min) μGy/h,線量率 平均値 (average) μGy/h,
江戸川 (Edogawa),2014-08-10,23:01～24:00,0.0756,0.0662,0.0706,
江戸川 (Edogawa),2014-08-10,22:01～23:00,0.0744,0.0668,0.0706,
江戸川 (Edogawa),2014-08-10,21:01～22:00,0.0748,0.0677,0.0709,
江戸川 (Edogawa),2014-08-10,20:01～21:00,0.0744,0.0673,0.0709,
江戸川 (Edogawa),2014-08-10,19:01～20:00,0.0762,0.0655,0.0709,
江戸川 (Edogawa),2014-08-10,18:01～19:00,0.0755,0.0680,0.0711,
江戸川 (Edogawa),2014-08-10,17:01～18:00,0.0740,0.0674,0.0710,
江戸川 (Edogawa),2014-08-10,16:01～17:00,0.0744,0.0669,0.0704,
江戸川 (Edogawa),2014-08-10,15:01～16:00,0.0745,0.0671,0.0705,
江戸川 (Edogawa),2014-08-10,14:01～15:00,0.0747,0.0680,0.0713,
江戸川 (Edogawa),2014-08-10,13:01～14:00,0.0762,0.0675,0.0716,
江戸川 (Edogawa),2014-08-10,12:01～13:00,0.0750,0.0671,0.0711,
江戸川 (Edogawa),2014-08-10,11:01～12:00,0.0738,0.0673,0.0709,
江戸川 (Edogawa),2014-08-10,10:01～11:00,0.0740,0.0664,0.0706,
江戸川 (Edogawa),2014-08-10,09:01～10:00,0.0737,0.0656,0.0705,
江戸川 (Edogawa),2014-08-10,08:01～09:00,0.0743,0.0675,0.0707,
江戸川 (Edogawa),2014-08-10,07:01～08:00,0.0738,0.0668,0.0710,
江戸川 (Edogawa),2014-08-10,06:01～07:00,0.0737,0.0667,0.0704,
江戸川 (Edogawa),2014-08-10,05:01～06:00,0.0758,0.0679,0.0718,
江戸川 (Edogawa),2014-08-10,04:01～05:00,0.0738,0.0653,0.0699,
江戸川 (Edogawa),2014-08-10,03:01～04:00,0.0783,0.0688,0.0731,
江戸川 (Edogawa),2014-08-10,02:01～03:00,0.0732,0.0607,0.0672,
江戸川 (Edogawa),2014-08-10,01:01～02:00,0.0788,0.0595,0.0716,
江戸川 (Edogawa),2014-08-10,00:01～01:00,0.0801,0.0704,0.0744,
江戸川 (Edogawa),2014-08-09,23:01～24:00,0.0795,0.0721,0.0755,
江戸川 (Edogawa),2014-08-09,22:01～23:00,0.0823,0.0723,0.0759,
江戸川 (Edogawa),2014-08-09,21:01～22:00,0.0807,0.0711,0.0751,
江戸川 (Edogawa),2014-08-09,20:01～21:00,0.0814,0.0720,0.0754,
江戸川 (Edogawa),2014-08-09,19:01～20:00,0.0790,0.0720,0.0752,
江戸川 (Edogawa),2014-08-09,18:01～19:00,0.0797,0.0726,0.0756,
江戸川 (Edogawa),2014-08-09,17:01～18:00,0.0805,0.0715,0.0748,
江戸川 (Edogawa),2014-08-09,16:01～17:00,0.0821,0.0714,0.0758,
江戸川 (Edogawa),2014-08-09,15:01～16:00,0.0808,0.0723,0.0762,
江戸川 (Edogawa),2014-08-09,14:01～15:00,0.0824,0.0725,0.0764,
江戸川 (Edogawa),2014-08-09,13:01～14:00,0.0826,0.0711,0.0760,
江戸川 (Edogawa),2014-08-09,12:01～13:00,0.0823,0.0730,0.0766,
江戸川 (Edogawa),2014-08-09,11:01～12:00,0.0818,0.0727,0.0761,
江戸川 (Edogawa),2014-08-09,10:01～11:00,0.0819,0.0714,0.0758,
江戸川 (Edogawa),2014-08-09,09:01～10:00,0.0806,0.0719,0.0761,
江戸川 (Edogawa),2014-08-09,08:01～09:00,0.0802,0.0726,0.0760,
江戸川 (Edogawa),2014-08-09,07:01～08:00,0.0813,0.0719,0.0761,
江戸川 (Edogawa),2014-08-09,06:01～07:00,0.0810,0.0719,0.0764,
江戸川 (Edogawa),2014-08-09,05:01～06:00,0.0813,0.0716,0.0763,
江戸川 (Edogawa),2014-08-09,04:01～05:00,0.0843,0.0720,0.0762,
江戸川 (Edogawa),2014-08-09,03:01～04:00,0.0827,0.0722,0.0779,
江戸川 (Edogawa),2014-08-09,02:01～03:00,0.0846,0.0726,0.0774,
江戸川 (Edogawa),2014-08-09,01:01～02:00,0.0826,0.0726,0.0770,
江戸川 (Edogawa),2014-08-09,00:01～01:00,0.0850,0.0729,0.0767,
江戸川 (Edogawa),2014-08-08,23:01～24:00,0.0832,0.0719,0.0768,
江戸川 (Edogawa),2014-08-08,22:01～23:00,0.0826,0.0725,0.0768,
江戸川 (Edogawa),2014-08-08,21:01～22:00,0.0845,0.0728,0.0766,
江戸川 (Edogawa),2014-08-08,20:01～21:00,0.0807,0.0724,0.0762,
江戸川 (Edogawa),2014-08-08,19:01～20:00,0.0810,0.0720,0.0760,
江戸川 (Edogawa),2014-08-08,18:01～19:00,0.0809,0.0702,0.0758,
江戸川 (Edogawa),2014-08-08,17:01～18:00,0.0809,0.0717,0.0757,
江戸川 (Edogawa),2014-08-08,16:01～17:00,0.0828,0.0717,0.0761,
江戸川 (Edogawa),2014-08-08,15:01～16:00,0.0813,0.0711,0.0760,
江戸川 (Edogawa),2014-08-08,14:01～15:00,0.0821,0.0718,0.0758,
江戸川 (Edogawa),2014-08-08,13:01～14:00,0.0864,0.0721,0.0765,
江戸川 (Edogawa),2014-08-08,12:01～13:00,0.0813,0.0721,0.0765,
江戸川 (Edogawa),2014-08-08,11:01～12:00,0.0811,0.0719,0.0760,
江戸川 (Edogawa),2014-08-08,10:01～11:00,0.0830,0.0727,0.0765,
江戸川 (Edogawa),2014-08-08,09:01～10:00,0.0815,0.0722,0.0762,
江戸川 (Edogawa),2014-08-08,08:01～09:00,0.0811,0.0707,0.0759,
江戸川 (Edogawa),2014-08-08,07:01～08:00,0.0823,0.0712,0.0760,
江戸川 (Edogawa),2014-08-08,06:01～07:00,0.0817,0.0712,0.0757,
江戸川 (Edogawa),2014-08-08,05:01～06:00,0.0812,0.0724,0.0760,
江戸川 (Edogawa),2014-08-08,04:01～05:00,0.0834,0.0718,0.0758,
江戸川 (Edogawa),2014-08-08,03:01～04:00,0.0823,0.0724,0.0760,
江戸川 (Edogawa),2014-08-08,02:01～03:00,0.0795,0.0715,0.0755,
江戸川 (Edogawa),2014-08-08,01:01～02:00,0.0801,0.0711,0.0758,
江戸川 (Edogawa),2014-08-08,00:01～01:00,0.0806,0.0711,0.0754,
江戸川 (Edogawa),2014-08-07,23:01～24:00,0.0807,0.0720,0.0759,
江戸川 (Edogawa),2014-08-07,22:01～23:00,0.0806,0.0713,0.0760,
江戸川 (Edogawa),2014-08-07,21:01～22:00,0.0823,0.0712,0.0761,
江戸川 (Edogawa),2014-08-07,20:01～21:00,0.0810,0.0726,0.0760,
江戸川 (Edogawa),2014-08-07,19:01～20:00,0.0824,0.0720,0.0762,
江戸川 (Edogawa),2014-08-07,18:01～19:00,0.0816,0.0725,0.0761,
江戸川 (Edogawa),2014-08-07,17:01～18:00,0.0832,0.0717,0.0758,
江戸川 (Edogawa),2014-08-07,16:01～17:00,0.0798,0.0719,0.0756,
江戸川 (Edogawa),2014-08-07,15:01～16:00,0.0804,0.0715,0.0755,
江戸川 (Edogawa),2014-08-07,14:01～15:00,0.0826,0.0723,0.0766,
江戸川 (Edogawa),2014-08-07,13:01～14:00,0.0826,0.0718,0.0757,
江戸川 (Edogawa),2014-08-07,12:01～13:00,0.0818,0.0718,0.0755,
江戸川 (Edogawa),2014-08-07,11:01～12:00,0.0811,0.0712,0.0759,
江戸川 (Edogawa),2014-08-07,10:01～11:00,0.0825,0.0703,0.0755,
江戸川 (Edogawa),2014-08-07,09:01～10:00,0.0828,0.0725,0.0763,
江戸川 (Edogawa),2014-08-07,08:01～09:00,0.0807,0.0717,0.0757,
江戸川 (Edogawa),2014-08-07,07:01～08:00,0.0806,0.0719,0.0755,
江戸川 (Edogawa),2014-08-07,06:01～07:00,0.0804,0.0715,0.0759,
江戸川 (Edogawa),2014-08-07,05:01～06:00,0.0791,0.0710,0.0752,
江戸川 (Edogawa),2014-08-07,04:01～05:00,0.0827,0.0724,0.0758,
江戸川 (Edogawa),2014-08-07,03:01～04:00,0.0809,0.0725,0.0757,
江戸川 (Edogawa),2014-08-07,02:01～03:00,0.0818,0.0707,0.0763,
江戸川 (Edogawa),2014-08-07,01:01～02:00,0.0826,0.0711,0.0760,
江戸川 (Edogawa),2014-08-07,00:01～01:00,0.0830,0.0714,0.0758,
江戸川 (Edogawa),2014-08-06,23:01～24:00,0.0797,0.0724,0.0758,
江戸川 (Edogawa),2014-08-06,22:01～23:00,0.0808,0.0718,0.0755,
江戸川 (Edogawa),2014-08-06,21:01～22:00,0.0813,0.0719,0.0758,
江戸川 (Edogawa),2014-08-06,20:01～21:00,0.0815,0.0713,0.0756,
江戸川 (Edogawa),2014-08-06,19:01～20:00,0.0817,0.0718,0.0759,
江戸川 (Edogawa),2014-08-06,18:01～19:00,0.0810,0.0724,0.0757,
江戸川 (Edogawa),2014-08-06,17:01～18:00,0.0854,0.0717,0.0761,
江戸川 (Edogawa),2014-08-06,16:01～17:00,0.0809,0.0718,0.0763,
江戸川 (Edogawa),2014-08-06,15:01～16:00,0.0823,0.0715,0.0759,
江戸川 (Edogawa),2014-08-06,14:01～15:00,0.0817,0.0726,0.0763,
江戸川 (Edogawa),2014-08-06,13:01～14:00,0.0821,0.0721,0.0754,
江戸川 (Edogawa),2014-08-06,12:01～13:00,0.0801,0.0718,0.0756,
江戸川 (Edogawa),2014-08-06,11:01～12:00,0.0821,0.0720,0.0760,
江戸川 (Edogawa),2014-08-06,10:01～11:00,0.0827,0.0716,0.0759,
江戸川 (Edogawa),2014-08-06,09:01～10:00,0.0811,0.0713,0.0757,
江戸川 (Edogawa),2014-08-06,08:01～09:00,0.0802,0.0713,0.0754,
江戸川 (Edogawa),2014-08-06,07:01～08:00,0.0808,0.0723,0.0757,
江戸川 (Edogawa),2014-08-06,06:01～07:00,0.0837,0.0717,0.0757,
江戸川 (Edogawa),2014-08-06,05:01～06:00,0.0828,0.0711,0.0753,
江戸川 (Edogawa),2014-08-06,04:01～05:00,0.0814,0.0712,0.0755,
江戸川 (Edogawa),2014-08-06,03:01～04:00,0.0807,0.0716,0.0759,
江戸川 (Edogawa),2014-08-06,02:01～03:00,0.0813,0.0717,0.0760,
江戸川 (Edogawa),2014-08-06,01:01～02:00,0.0822,0.0718,0.0761,
江戸川 (Edogawa),2014-08-06,00:01～01:00,0.0802,0.0723,0.0754,
江戸川 (Edogawa),2014-08-05,23:01～24:00,0.0805,0.0723,0.0756,
江戸川 (Edogawa),2014-08-05,22:01～23:00,0.0806,0.0720,0.0753,
江戸川 (Edogawa),2014-08-05,21:01～22:00,0.0829,0.0713,0.0756,
江戸川 (Edogawa),2014-08-05,20:01～21:00,0.0812,0.0718,0.0758,
江戸川 (Edogawa),2014-08-05,19:01～20:00,0.0808,0.0713,0.0758,
江戸川 (Edogawa),2014-08-05,18:01～19:00,0.0827,0.0717,0.0753,
江戸川 (Edogawa),2014-08-05,17:01～18:00,0.0848,0.0712,0.0761,
江戸川 (Edogawa),2014-08-05,16:01～17:00,0.0802,0.0716,0.0754,
江戸川 (Edogawa),2014-08-05,15:01～16:00,0.0812,0.0722,0.0756,
江戸川 (Edogawa),2014-08-05,14:01～15:00,0.0809,0.0721,0.0755,
江戸川 (Edogawa),2014-08-05,13:01～14:00,0.0833,0.0724,0.0763,
江戸川 (Edogawa),2014-08-05,12:01～13:00,0.0810,0.0716,0.0758,
江戸川 (Edogawa),2014-08-05,11:01～12:00,0.0833,0.0718,0.0763,
江戸川 (Edogawa),2014-08-05,10:01～11:00,0.0816,0.0717,0.0760,
江戸川 (Edogawa),2014-08-05,09:01～10:00,0.0802,0.0712,0.0752,
江戸川 (Edogawa),2014-08-05,08:01～09:00,0.0809,0.0711,0.0758,
江戸川 (Edogawa),2014-08-05,07:01～08:00,0.0801,0.0707,0.0754,
江戸川 (Edogawa),2014-08-05,06:01～07:00,0.0808,0.0720,0.0754,
江戸川 (Edogawa),2014-08-05,05:01～06:00,0.0800,0.0720,0.0752,
江戸川 (Edogawa),2014-08-05,04:01～05:00,0.0812,0.0721,0.0756,
江戸川 (Edogawa),2014-08-05,03:01～04:00,0.0821,0.0717,0.0755,
江戸川 (Edogawa),2014-08-05,02:01～03:00,0.0828,0.0719,0.0755,
江戸川 (Edogawa),2014-08-05,01:01～02:00,0.0838,0.0716,0.0754,
江戸川 (Edogawa),2014-08-05,00:01～01:00,0.0822,0.0721,0.0762,
江戸川 (Edogawa),2014-08-04,23:01～24:00,0.0815,0.0721,0.0754,
江戸川 (Edogawa),2014-08-04,22:01～23:00,0.0814,0.0686,0.0760,
江戸川 (Edogawa),2014-08-04,21:01～22:00,0.0797,0.0716,0.0758,
江戸川 (Edogawa),2014-08-04,20:01～21:00,0.0823,0.0708,0.0753,
江戸川 (Edogawa),2014-08-04,19:01～20:00,0.0802,0.0710,0.0755,
江戸川 (Edogawa),2014-08-04,18:01～19:00,0.0814,0.0725,0.0756,
江戸川 (Edogawa),2014-08-04,17:01～18:00,0.0802,0.0719,0.0755,
江戸川 (Edogawa),2014-08-04,16:01～17:00,0.0822,0.0718,0.0757,
江戸川 (Edogawa),2014-08-04,15:01～16:00,0.0806,0.0715,0.0754,
江戸川 (Edogawa),2014-08-04,14:01～15:00,0.0802,0.0715,0.0755,
江戸川 (Edogawa),2014-08-04,13:01～14:00,0.0816,0.0726,0.0759,
江戸川 (Edogawa),2014-08-04,12:01～13:00,0.0820,0.0723,0.0754,
江戸川 (Edogawa),2014-08-04,11:01～12:00,0.0806,0.0705,0.0753,
江戸川 (Edogawa),2014-08-04,10:01～11:00,0.0833,0.0709,0.0755,
江戸川 (Edogawa),2014-08-04,09:01～10:00,0.0810,0.0713,0.0753,
江戸川 (Edogawa),2014-08-04,08:01～09:00,0.0809,0.0711,0.0749,
江戸川 (Edogawa),2014-08-04,07:01～08:00,0.0800,0.0718,0.0752,
江戸川 (Edogawa),2014-08-04,06:01～07:00,0.0817,0.0704,0.0749,
江戸川 (Edogawa),2014-08-04,05:01～06:00,0.0819,0.0719,0.0752,
江戸川 (Edogawa),2014-08-04,04:01～05:00,0.0822,0.0720,0.0754,
江戸川 (Edogawa),2014-08-04,03:01～04:00,0.0805,0.0711,0.0755,
江戸川 (Edogawa),2014-08-04,02:01～03:00,0.0808,0.0730,0.0761,
江戸川 (Edogawa),2014-08-04,01:01～02:00,0.0807,0.0708,0.0752,
江戸川 (Edogawa),2014-08-04,00:01～01:00,0.0808,0.0719,0.0758,
